Sabadell Airport

Jump to: basic info | weather | runways | comments

Related pages: nearby airports | nearby navaids | notams | map

Basic information (top)

Codes: QSA LELL
Location: lon 41.520901, lat 2.105080, elev 485 ft / 148 m msl
Status: small_airport

Weather (top)

Current conditions (rec'd 2015/03/06 17:30Z):

LELL 061730Z 19007KT 160V220 CAVOK 12/04 Q1030

Airport forecast (rec'd 2015/03/06 15:39Z):

TAF TAF LELL 062031Z 0615/0715 CNL

Runways (top)

13/31: 2,953 ft (900 m) — surface unknown — not lighted

Latest comments (top)

Sabadell: Any idea of the cost of avgas here? [read]

GA Pilots useful info: Last visit: summer 2014 Fuel: Avgas ... [read]

Great service, easy in & out: Here our expenses for 3 days in ... [read]

great service, great people: So going on a helicopter through spain ... [read]

More... (top)

See also NOTAMs and nearby airports and navaids, or visit the Sabadell Airport page at the main OurAirports website..